[[{"header":{"parameterUnit":"m.s-1","parameterCategory":1,"la1":30.2991,"la2":30.254,"lo1":-89.0895,"lo2":-89.0444,"dy":0.0017,"dx":0.0017,"nx":28,"ny":28,"refTime":"2023-09-26T21:00:00:Z","depth":0,"parameterNumber":2,"parameterNumberName":"U-component_of_WINDS"},"data":[0,0,0,0,0,0,0,0,0,0,0,0,0,0,0,0,0,0,0,0,0,0,0,0,0,0,0,0,0,0,0,0,0,0,0,0,0,0,0,0,0,0,0,0,0,0,0,0,0,0,0,0,0,0,0,0,0,0,-4.5228,-4.5229,0,-4.5282,-4.5283,-4.5283,-4.5186,-4.5182,-4.5179,-4.5176,-4.5231,-4.5235,-4.524,0,0,0,0,0,0,0,0,0,0,0,0,0,-4.5038,-4.5042,-4.5228,-4.5229,-4.5229,-4.5282,-4.5283,-4.5283,-4.5186,-4.5182,-4.5178,-4.5175,-4.5229,-4.5235,-4.524,0,0,0,0,0,0,0,0,0,0,0,0,0,-4.5109,-4.5044,-4.5228,-4.5187,-4.5184,-4.5282,-4.5283,-4.5284,-4.5187,-4.5182,-4.5177,-4.5173,-4.5228,-4.5234,-4.5241,-4.5381,0,0,-4.5261,-4.5264,0,0,0,0,0,0,0,0,-4.5105,-4.5116,-4.5192,-4.519,-4.5187,-4.5222,-4.5236,-4.5316,-4.5188,-4.5186,-4.5176,-4.517,-4.5232,-4.5238,-4.5259,-4.5383,-4.5385,-4.5262,-4.5266,-4.5269,-4.5271,0,0,0,0,0,0,0,-4.5101,-4.5114,-4.5249,-4.5194,-4.519,-4.5165,-4.517,-4.5251,-4.5236,-4.5186,-4.5179,-4.5187,-4.5229,-4.5253,-4.5259,-4.5386,-4.5262,-4.5268,-4.5272,-4.5275,-4.5626,-4.5631,0,0,0,0,0,0,-4.5101,-4.511,-4.5247,-4.5251,-4.5133,-4.5173,-4.5178,-4.5216,-4.5234,-4.5233,-4.5191,-4.5182,-4.5243,-4.5252,-4.5261,-4.5425,-4.5269,-4.5275,-4.5279,-4.5621,-4.5627,-4.5633,0,0,0,0,0,0,-4.5097,-4.5114,-4.5245,-4.5179,-4.5193,-4.5181,-4.5224,-4.5219,-4.5242,-4.5238,-4.5235,-4.5217,-4.524,-4.5251,-4.5351,-4.5425,-4.5278,-4.5284,-4.5615,-4.5623,-4.563,-4.5754,0,0,0,0,0,0,-4.5092,-4.5113,-4.5167,-4.5181,-4.5197,-4.5336,-4.5229,-4.5224,-4.5254,-4.5243,-4.5262,-4.5261,-4.5237,-4.5342,-4.5358,-4.5432,-4.529,-4.5608,-4.5618,-4.5628,-4.5743,-4.5765,-4.5784,0,0,0,0,0,-4.5086,-4.52,-4.517,-4.5187,-4.5264,-4.534,-4.535,-4.532,-4.5261,-4.5314,-4.5311,-4.526,-4.5415,-4.5353,-4.537,-4.5447,-4.5603,-4.5615,-4.5627,-4.5734,-4.5761,-4.5784,0,0,0,0,0,0,-4.5196,-4.5201,-4.5168,-4.529,-4.5316,-4.5324,-4.539,-4.535,-4.5392,-4.538,-4.5341,-4.5346,-4.5454,-4.546,-4.5391,-4.5583,-4.5499,-4.5515,-4.5574,-4.56,-4.562,-4.5616,-4.5295,0,0,0,0,0,-4.5234,-4.5296,-4.5297,-4.5405,-4.5419,-4.5403,-4.5435,-4.541,-4.5434,-4.5444,-4.5448,-4.5474,-4.5527,-4.5564,-4.5614,-4.5744,-4.5746,-4.5805,-4.5826,-4.5842,-4.5857,-4.5925,-4.5951,-4.5672,-4.5672,-4.5672,0,0,-4.5314,-4.5325,-4.5366,-4.5427,-4.5444,-4.5508,-4.5412,-4.5484,-4.5531,-4.5455,-4.5549,-4.5553,-4.5579,-4.5694,-4.5745,-4.5703,-4.5934,-4.5858,-4.5871,-4.5876,-4.594,-4.5966,-4.599,-4.568,-4.5679,-4.5677,0,0,-4.5493,-4.5507,-4.5598,-4.5616,-4.5642,-4.5631,-4.5652,-4.5667,-4.5666,-4.576,-4.5704,-4.5759,-4.5853,-4.5873,-4.5896,-4.608,-4.6035,-4.6098,-4.6204,-4.6271,-4.6293,-4.6312,-4.6377,-4.6401,-4.6112,-4.6112,-4.6112,0,-4.5589,-4.5684,-4.565,-4.5726,-4.5753,-4.5687,-4.5778,-4.5797,-4.5838,-4.5859,-4.5811,-4.5927,-4.5939,-4.6058,-4.6103,-4.6124,-4.6146,-4.6095,-4.6292,-4.6311,-4.6329,-4.639,-4.6415,-4.6119,-4.6119,-4.6118,-4.6117,0,-4.58,-4.5866,-4.5936,-4.5977,-4.6013,-4.6096,-4.6074,-4.6114,-4.6086,-4.6079,-4.6174,-4.6187,-4.6237,-4.6263,-4.6237,-4.6378,-4.6351,-4.6299,-4.6213,-4.6363,-4.642,-4.6444,-4.613,-4.6127,-4.6125,-4.6123,0,0,-4.605,-4.607,-4.6097,-4.6114,-4.6137,-4.6188,-4.6267,-4.6316,-4.6351,-4.6381,-4.6446,-4.6527,-4.6478,-4.6504,-4.6478,-4.6537,-4.6681,-4.6477,-4.6477,-4.6514,-4.6836,-4.6875,-4.6903,-4.6651,-4.6655,-4.6659,-4.6834,0,-4.6226,-4.6364,-4.6335,-4.6469,-4.6529,-4.6466,-4.6535,-4.6557,-4.6552,-4.6602,-4.6596,-4.6654,-4.6585,-4.66,-4.6656,-4.6652,-4.6745,-4.6639,-4.671,-4.6713,-4.6705,-4.6933,-4.6975,-4.714,-4.6856,-4.686,-4.6863,0,-4.6451,-4.6489,-4.663,-4.6642,-4.6666,-4.6729,-4.6771,-4.682,-4.6842,-4.6834,-4.6863,-4.6826,-4.6903,-4.6818,-4.6923,-4.6852,-4.6879,-4.6882,-4.6887,-4.6892,-4.6797,-4.6944,-4.7192,-4.7216,-4.6898,-4.6895,-4.6892,0,-4.6618,-4.6705,-4.68,-4.6817,-4.6834,-4.6879,-4.6888,-4.6906,-4.6937,-4.6973,-4.6993,-4.7038,-4.7063,-4.7098,-4.7074,-4.7014,-4.7184,-4.7096,-4.7179,-4.718,-4.7217,-4.7215,-4.7473,-4.7236,-4.7236,-4.7235,-4.7235,0,-4.6818,-4.6906,-4.6875,-4.6934,-4.703,-4.6995,-4.7091,-4.7093,-4.7109,-4.7166,-4.7114,-4.7169,-4.7134,-4.7185,-4.7166,-4.7256,-4.7268,-4.7263,-4.7257,-4.7268,-4.7268,-4.7285,-4.7273,-4.7242,-4.7241,-4.7239,-4.7238,0,-4.7021,-4.7004,-4.7103,-4.7111,-4.7115,-4.7186,-4.7192,-4.7245,-4.7236,-4.7309,-4.7324,-4.731,-4.7367,-4.7347,-4.7408,-4.7395,-4.751,-4.7489,-4.7503,-4.7497,-4.7581,-4.7573,-4.7857,-4.7892,-4.7634,-4.7637,-4.7639,0,-4.715,-4.7216,-4.7231,-4.7265,-4.7278,-4.7334,-4.7365,-4.7333,-4.7368,-4.7398,-4.7448,-4.7501,-4.7541,-4.7636,-4.7631,-4.7678,-4.7657,-4.7753,-4.7664,-4.7672,-4.7658,-4.7654,-4.766,-4.7771,-4.7774,-4.7777,-4.7779,0,-4.738,-4.7368,-4.7414,-4.7459,-4.7497,-4.753,-4.7559,-4.759,-4.7559,-4.76,-4.7658,-4.769,-4.7752,-4.7805,-4.7847,-4.7855,-4.7812,-4.7807,-4.7828,-4.784,-4.7844,-4.7842,-4.7551,-4.7801,-4.7799,-4.7797,-4.7796,-4.7795,-4.7549,-4.7604,-4.7623,-4.7677,-4.7694,-4.7722,-4.7772,-4.7769,-4.7817,-4.7866,-4.7844,-4.7911,-4.793,-4.7981,-4.7996,-4.8047,-4.8009,-4.8041,-4.8049,-4.8057,-4.8067,-4.7837,-4.8055,-4.8054,-4.8053,-4.8053,-4.8052,0,-4.7775,-4.7784,-4.7833,-4.7875,-4.7917,-4.7872,-4.7901,-4.7939,-4.7999,-4.802,-4.8061,-4.8127,-4.8178,-4.8177,-4.8223,-4.8265,-4.8246,-4.8278,-4.8274,-4.8277,-4.8099,-4.8075,-4.8292,-4.8292,-4.8292,-4.8292,-4.8292,-4.8292,-4.7898,-4.7989,-4.7979,-4.8078,-4.8085,-4.815,-4.8171,-4.8195,-4.8212,-4.8288,-4.833,-4.8329,-4.8341,-4.8388,-4.8432,-4.843,-4.845,-4.8489,-4.848,-4.8313,-4.829,-4.8267,-4.8244,-4.8494,-4.8494,-4.8654,-4.8655,-4.8656]},{"header":{"parameterUnit":"m.s-1","parameterCategory":1,"la1":30.2991,"la2":30.254,"lo1":-89.0895,"lo2":-89.0444,"dy":0.0017,"dx":0.0017,"nx":28,"ny":28,"refTime":"2023-09-26T21:00:00:Z","depth":0,"parameterNumber":3,"parameterNumberName":"V-component_of_WINDS"},"data":[0,0,0,0,0,0,0,0,0,0,0,0,0,0,0,0,0,0,0,0,0,0,0,0,0,0,0,0,0,0,0,0,0,0,0,0,0,0,0,0,0,0,0,0,0,0,0,0,0,0,0,0,0,0,0,0,0,0,-3.5786,-3.5786,0,-3.5799,-3.58,-3.58,-3.5745,-3.5743,-3.5742,-3.574,-3.5754,-3.5755,-3.5757,0,0,0,0,0,0,0,0,0,0,0,0,0,-3.571,-3.5712,-3.5786,-3.5786,-3.5786,-3.5799,-3.58,-3.58,-3.5745,-3.5743,-3.5741,-3.574,-3.5753,-3.5755,-3.5757,0,0,0,0,0,0,0,0,0,0,0,0,0,-3.5735,-3.5712,-3.5786,-3.576,-3.5758,-3.5799,-3.58,-3.58,-3.5746,-3.5743,-3.5741,-3.5739,-3.5752,-3.5755,-3.5758,-3.5823,0,0,-3.5766,-3.5767,0,0,0,0,0,0,0,0,-3.5734,-3.5738,-3.5764,-3.5762,-3.576,-3.5768,-3.5778,-3.5808,-3.5746,-3.5751,-3.574,-3.5737,-3.576,-3.5762,-3.577,-3.5824,-3.5824,-3.5766,-3.5768,-3.5769,-3.577,0,0,0,0,0,0,0,-3.5732,-3.5737,-3.5791,-3.5764,-3.5762,-3.5748,-3.5749,-3.5783,-3.5769,-3.575,-3.5746,-3.5748,-3.5759,-3.5768,-3.577,-3.5825,-3.5766,-3.5769,-3.5771,-3.5772,-3.5931,-3.5934,0,0,0,0,0,0,-3.5734,-3.5736,-3.5791,-3.5791,-3.5741,-3.5751,-3.5752,-3.5768,-3.5768,-3.5766,-3.5751,-3.5746,-3.5764,-3.5767,-3.577,-3.5846,-3.5769,-3.5772,-3.5773,-3.5929,-3.5932,-3.5934,0,0,0,0,0,0,-3.5732,-3.5739,-3.579,-3.5763,-3.5768,-3.5755,-3.5773,-3.5769,-3.5778,-3.5769,-3.5766,-3.5762,-3.5762,-3.5766,-3.581,-3.5846,-3.5773,-3.5776,-3.5926,-3.593,-3.5933,-3.5999,0,0,0,0,0,0,-3.5731,-3.5739,-3.5765,-3.5764,-3.577,-3.5831,-3.5775,-3.5771,-3.5783,-3.5777,-3.5779,-3.5777,-3.5761,-3.5806,-3.5813,-3.5848,-3.5778,-3.5922,-3.5927,-3.5932,-3.5993,-3.6004,-3.6014,0,0,0,0,0,-3.5728,-3.5783,-3.5766,-3.5773,-3.5801,-3.5833,-3.5836,-3.5817,-3.5786,-3.5811,-3.5805,-3.5777,-3.5841,-3.5811,-3.5818,-3.5855,-3.592,-3.5926,-3.5932,-3.5989,-3.6002,-3.6014,0,0,0,0,0,0,-3.5788,-3.5782,-3.5764,-3.582,-3.5827,-3.5823,-3.5854,-3.5832,-3.5848,-3.5841,-3.5816,-3.5817,-3.5865,-3.5864,-3.5831,-3.5918,-3.5875,-3.5883,-3.5916,-3.5929,-3.5939,-3.5938,-3.578,0,0,0,0,0,-3.5808,-3.5835,-3.5828,-3.5878,-3.5882,-3.5868,-3.5881,-3.5865,-3.5871,-3.5874,-3.5871,-3.5878,-3.5899,-3.5914,-3.5934,-3.5993,-3.5992,-3.6022,-3.6032,-3.604,-3.6047,-3.6077,-3.609,-3.5953,-3.5953,-3.5953,0,0,-3.5849,-3.5849,-3.5867,-3.589,-3.5894,-3.5921,-3.5871,-3.5902,-3.5922,-3.5879,-3.592,-3.5918,-3.5924,-3.5975,-3.5998,-3.5976,-3.6084,-3.6048,-3.6054,-3.6056,-3.6084,-3.6097,-3.6109,-3.5957,-3.5957,-3.5956,0,0,-3.5938,-3.5941,-3.5982,-3.5987,-3.5993,-3.5983,-3.5993,-3.5993,-3.599,-3.603,-3.5998,-3.6021,-3.6059,-3.6064,-3.6072,-3.6161,-3.6135,-3.6168,-3.6221,-3.6251,-3.6262,-3.6271,-3.6302,-3.6314,-3.6175,-3.6175,-3.6175,0,-3.5988,-3.6029,-3.6007,-3.604,-3.605,-3.6012,-3.6053,-3.6059,-3.6071,-3.6079,-3.6054,-3.61,-3.6102,-3.6153,-3.6175,-3.6183,-3.6192,-3.6168,-3.6262,-3.6271,-3.628,-3.6309,-3.6321,-3.6179,-3.6178,-3.6178,-3.6178,0,-3.6089,-3.6118,-3.615,-3.6163,-3.6177,-3.6214,-3.6197,-3.6213,-3.6196,-3.6188,-3.6229,-3.6229,-3.6247,-3.6259,-3.6242,-3.6308,-3.6294,-3.6266,-3.6223,-3.6297,-3.6324,-3.6335,-3.6184,-3.6183,-3.6182,-3.6181,0,0,-3.6217,-3.6216,-3.6229,-3.6233,-3.6237,-3.6258,-3.6292,-3.631,-3.6324,-3.6334,-3.6361,-3.6394,-3.6368,-3.6377,-3.636,-3.6386,-3.6456,-3.6355,-3.6355,-3.6373,-3.6527,-3.6547,-3.656,-3.6439,-3.6441,-3.6443,-3.6526,0,-3.6304,-3.6363,-3.6344,-3.6404,-3.6429,-3.6392,-3.6422,-3.6427,-3.6421,-3.644,-3.6433,-3.6456,-3.642,-3.6425,-3.6449,-3.6442,-3.6486,-3.6436,-3.6464,-3.6465,-3.6463,-3.6575,-3.6597,-3.6675,-3.6536,-3.6538,-3.6539,0,-3.6413,-3.6426,-3.6488,-3.6486,-3.6496,-3.6523,-3.6537,-3.6557,-3.6561,-3.6554,-3.6564,-3.6541,-3.6574,-3.6531,-3.6576,-3.6542,-3.6552,-3.655,-3.6553,-3.6554,-3.6506,-3.6578,-3.67,-3.6712,-3.6556,-3.6555,-3.6553,0,-3.6498,-3.6532,-3.6573,-3.6578,-3.6577,-3.6597,-3.6597,-3.6599,-3.6611,-3.6623,-3.663,-3.6646,-3.6654,-3.6667,-3.6649,-3.6619,-3.6696,-3.6651,-3.669,-3.6691,-3.6708,-3.6707,-3.6832,-3.6715,-3.6715,-3.6715,-3.6715,0,-3.6596,-3.6636,-3.6611,-3.6637,-3.6679,-3.6656,-3.6699,-3.6695,-3.6697,-3.672,-3.669,-3.6713,-3.6688,-3.6708,-3.6695,-3.6733,-3.6737,-3.6732,-3.6728,-3.6734,-3.6735,-3.674,-3.6734,-3.6718,-3.6717,-3.6717,-3.6716,0,-3.6699,-3.6685,-3.6727,-3.6722,-3.6722,-3.6753,-3.6749,-3.6772,-3.6762,-3.6792,-3.6798,-3.6784,-3.6805,-3.6789,-3.6811,-3.6801,-3.6852,-3.684,-3.685,-3.6847,-3.6886,-3.6883,-3.7019,-3.7035,-3.6909,-3.691,-3.6911,0,-3.6763,-3.6792,-3.679,-3.6804,-3.6806,-3.6828,-3.6839,-3.6817,-3.683,-3.6836,-3.6858,-3.6878,-3.6892,-3.6928,-3.6919,-3.6936,-3.6924,-3.697,-3.6926,-3.6931,-3.6923,-3.6922,-3.6924,-3.6979,-3.6981,-3.6982,-3.6983,0,-3.6877,-3.6867,-3.6885,-3.69,-3.6914,-3.6924,-3.6933,-3.6945,-3.6923,-3.6938,-3.696,-3.6971,-3.6993,-3.7012,-3.7025,-3.7025,-3.7,-3.6997,-3.7007,-3.7014,-3.7018,-3.7015,-3.6874,-3.6994,-3.6993,-3.6992,-3.6991,-3.6991,-3.6961,-3.6985,-3.6987,-3.7007,-3.701,-3.7018,-3.7039,-3.7032,-3.705,-3.7066,-3.7052,-3.7078,-3.708,-3.7095,-3.7097,-3.7117,-3.7098,-3.7112,-3.7116,-3.7119,-3.7125,-3.7015,-3.7119,-3.7119,-3.7119,-3.7118,-3.7118,0,-3.7072,-3.7072,-3.709,-3.7102,-3.7118,-3.7093,-3.71,-3.7115,-3.7138,-3.7142,-3.7157,-3.7181,-3.7199,-3.7192,-3.7207,-3.7224,-3.7213,-3.7229,-3.7228,-3.7228,-3.7141,-3.7131,-3.7238,-3.7238,-3.7238,-3.7238,-3.7238,-3.7238,-3.7132,-3.7171,-3.7162,-3.7201,-3.72,-3.7225,-3.7231,-3.7238,-3.7241,-3.727,-3.7285,-3.7279,-3.7279,-3.7294,-3.7309,-3.7306,-3.7313,-3.7333,-3.7326,-3.7246,-3.7234,-3.7223,-3.7213,-3.7335,-3.7335,-3.7411,-3.7412,-3.7412]}]]